Wind from 197 at 5 knots gusting 10

Air temperature 18.9° C
Dewpoint 14.6° C

Last reported at 2014-Apr-18 09:47 UTC.
Time now 2014-Apr-18 10:37 UTC

Location: N 37°26' W 006°03'.
View on Google Maps.

See reports from other nearby stations

Tides Stations Pressure Air Temp Water Temp Dewpoint Dewpoint depression Visibility Wind Speed Wind Dir Waves Ship positions

  
sailing weather and tide predictions

EA8CHC Sevilla ES weather

date/time (UTC)wind fromknots sea level pressurealtimeterstation pressurevisibilityair tempwater tempwave heightnotes
2014-Apr-18 09:47 197 5 gusting 10 18.9
2014-Apr-18 09:42 202 5 gusting 10 18.9
2014-Apr-18 09:32 255 6 gusting 10 18.9
2014-Apr-18 09:27 233 5 gusting 10 18.3
2014-Apr-18 09:22 223 5 gusting 9 18.3
2014-Apr-18 09:17 223 5 gusting 9 18.3
2014-Apr-18 09:12 240 4 gusting 9 18.3
2014-Apr-18 09:07 186 3 gusting 7 18.3
2014-Apr-18 09:02 227 3 gusting 8 17.8
2014-Apr-18 08:57 225 3 gusting 8 17.8
2014-Apr-18 08:52 173 4 gusting 9 17.8
2014-Apr-18 08:47 203 5 gusting 9 17.8
2014-Apr-18 08:42 238 4 gusting 9 17.8
2014-Apr-18 08:37 205 2 gusting 6 17.2
2014-Apr-18 08:32 174 0 gusting 2 17.2
2014-Apr-18 08:27 050 0 gusting 3 16.7
2014-Apr-18 08:22 046 0 gusting 3 16.7
2014-Apr-18 08:17 044 0 gusting 1 16.7
2014-Apr-18 08:12 336 16.7
2014-Apr-18 08:07 336 16.7
2014-Apr-18 08:02 336 16.1
2014-Apr-18 07:57 336 0 gusting 3 16.1
2014-Apr-18 07:52 336 0 gusting 3 16.1
2014-Apr-18 07:47 336 0 gusting 3 16.1
2014-Apr-18 07:42 336 0 gusting 3 16.1
2014-Apr-18 07:37 337 0 gusting 2 16.1
2014-Apr-18 07:32 284 0 gusting 2 16.1
2014-Apr-18 07:27 284 16.1
2014-Apr-18 07:22 284 16.1
2014-Apr-18 07:17 284 0 gusting 2 15.6
2014-Apr-18 07:12 284 0 gusting 2 15.6
2014-Apr-18 07:07 284 0 gusting 2 15.6
2014-Apr-18 07:02 284 0 gusting 2 15.6
2014-Apr-18 06:57 284 15.6
2014-Apr-18 06:52 284 15.6
2014-Apr-18 06:47 284 15.0
2014-Apr-18 06:42 284 0 gusting 4 15.0
2014-Apr-18 06:37 284 1 gusting 4 15.0
2014-Apr-18 06:32 284 1 gusting 4 15.0
2014-Apr-18 06:27 284 1 gusting 3 15.0
2014-Apr-18 06:22 284 0 gusting 2 15.0
2014-Apr-18 06:17 284 0 gusting 3 15.0
2014-Apr-18 06:12 284 0 gusting 3 15.0
2014-Apr-18 06:07 284 0 gusting 3 15.0
2014-Apr-18 06:02 284 0 gusting 6 15.6
2014-Apr-18 05:57 284 0 gusting 6 15.6
2014-Apr-18 05:52 276 0 gusting 2 15.6
2014-Apr-18 05:47 276 0 gusting 2 15.0
2014-Apr-18 05:42 323 0 gusting 2 15.0
2014-Apr-18 05:37 213 0 gusting 2 15.0
2014-Apr-18 05:32 213 0 gusting 2 15.0
2014-Apr-18 05:27 213 15.6
2014-Apr-18 05:22 213 0 gusting 1 15.6
2014-Apr-18 05:17 213 0 gusting 1 15.6
2014-Apr-18 05:12 213 15.6
2014-Apr-18 05:07 213 15.6
2014-Apr-18 05:02 213 15.6
2014-Apr-18 04:57 213 15.6
2014-Apr-18 04:52 213 0 gusting 5 15.6
2014-Apr-18 04:47 212 0 gusting 5 15.6
2014-Apr-18 04:42 211 1 gusting 5 15.6
2014-Apr-18 04:37 211 1 gusting 6 15.6
2014-Apr-18 04:32 214 2 gusting 6 15.6
2014-Apr-18 04:27 219 2 gusting 6 16.1
2014-Apr-18 04:22 203 2 gusting 6 16.1
2014-Apr-18 04:17 224 2 gusting 6 16.1
2014-Apr-18 04:12 212 1 gusting 6 16.1
2014-Apr-18 04:07 218 1 gusting 5 16.1
2014-Apr-18 04:02 219 2 gusting 6 16.1
2014-Apr-18 03:57 229 2 gusting 6 16.1
2014-Apr-18 03:52 237 3 gusting 8 16.7
2014-Apr-18 03:47 217 4 gusting 8 16.7
2014-Apr-18 03:42 217 3 gusting 8 16.7
2014-Apr-18 03:37 200 3 gusting 9 16.7
2014-Apr-18 03:32 188 4 gusting 9 16.7
2014-Apr-18 03:27 162 4 gusting 9 16.7
2014-Apr-18 03:22 185 3 gusting 7 17.2
2014-Apr-18 03:17 194 3 gusting 6 17.2
2014-Apr-18 03:12 179 2 gusting 6 17.2
2014-Apr-18 03:07 179 2 gusting 5 17.8
2014-Apr-18 03:02 179 2 gusting 6 17.8
2014-Apr-18 02:57 185 2 gusting 6 17.8
2014-Apr-18 02:52 175 3 gusting 6 17.8
2014-Apr-18 02:47 169 2 gusting 6 18.3
2014-Apr-18 02:42 198 1 gusting 3 18.3
2014-Apr-18 02:37 218 1 gusting 3 18.3
2014-Apr-18 02:32 218 0 gusting 3 18.3
2014-Apr-18 02:27 218 18.3
2014-Apr-18 02:22 218 0 gusting 3 18.3
2014-Apr-18 02:17 218 1 gusting 3 18.3
2014-Apr-18 02:12 218 0 gusting 3 18.3
2014-Apr-18 02:07 250 0 gusting 5 18.3
2014-Apr-18 02:02 271 0 gusting 5 18.3
2014-Apr-18 01:57 271 1 gusting 5 18.3
2014-Apr-18 01:52 272 2 gusting 5 18.3
2014-Apr-18 01:47 268 1 gusting 5 18.3
2014-Apr-18 01:42 290 1 gusting 4 18.3
2014-Apr-18 01:32 252 1 gusting 5 18.3
2014-Apr-18 01:27 257 1 gusting 5 18.3
2014-Apr-18 01:22 251 1 gusting 4 18.3
2014-Apr-18 01:17 259 0 gusting 4 18.3
2014-Apr-18 01:12 259 1 gusting 4 18.9
2014-Apr-18 01:07 261 0 gusting 5 18.9
2014-Apr-18 01:02 265 1 gusting 5 18.9
2014-Apr-18 00:57 239 1 gusting 5 18.9
2014-Apr-18 00:52 242 0 gusting 6 18.9
2014-Apr-18 00:47 242 1 gusting 6 18.9
2014-Apr-18 00:42 233 2 gusting 8 18.9
2014-Apr-18 00:37 246 2 gusting 8 18.9
2014-Apr-18 00:32 261 2 gusting 8 18.9
2014-Apr-18 00:27 234 2 gusting 6 18.9
2014-Apr-18 00:22 255 2 gusting 6 18.9
2014-Apr-18 00:17 245 2 gusting 6 18.9
2014-Apr-18 00:12 277 2 gusting 6 18.9
2014-Apr-18 00:07 250 1 gusting 6 18.9
2014-Apr-18 00:02 254 2 gusting 6 18.9
2014-Apr-17 23:57 255 3 gusting 6 18.9
2014-Apr-17 23:52 269 3 gusting 6 18.9
2014-Apr-17 23:47 273 3 gusting 6 18.9
2014-Apr-17 23:42 269 3 gusting 6 18.9
2014-Apr-17 23:37 270 3 gusting 6 18.9
2014-Apr-17 23:32 279 3 gusting 6 18.9
2014-Apr-17 23:27 271 3 gusting 6 18.9
2014-Apr-17 23:22 273 3 gusting 6 18.9
2014-Apr-17 23:17 281 4 gusting 8 18.9
2014-Apr-17 23:12 273 4 gusting 8 19.4
2014-Apr-17 23:07 284 5 gusting 7 19.4
2014-Apr-17 23:02 263 4 gusting 7 19.4
2014-Apr-17 22:57 273 4 gusting 7 19.4
2014-Apr-17 22:52 294 4 gusting 8 19.4
2014-Apr-17 22:47 280 5 gusting 8 19.4
2014-Apr-17 22:42 267 4 gusting 8 20.0
2014-Apr-17 22:37 297 3 gusting 7 20.0
2014-Apr-17 22:32 286 4 gusting 7 20.6
2014-Apr-17 22:27 246 4 gusting 7 20.6
2014-Apr-17 22:22 227 3 gusting 8 20.6
2014-Apr-17 22:17 254 2 gusting 8 20.6
2014-Apr-17 22:12 273 3 gusting 8 20.6
2014-Apr-17 22:07 252 2 gusting 7 20.6
2014-Apr-17 22:02 248 1 gusting 7 20.6
2014-Apr-17 21:57 261 1 gusting 8 20.6
2014-Apr-17 21:52 245 3 gusting 8 20.6
2014-Apr-17 21:47 263 2 gusting 8 21.1
2014-Apr-17 21:42 246 2 gusting 5 21.1
2014-Apr-17 21:37 246 1 gusting 4 21.1
2014-Apr-17 21:32 256 0 gusting 4 21.1
2014-Apr-17 21:27 256 0 gusting 3 21.1
2014-Apr-17 21:22 256 0 gusting 4 21.1
2014-Apr-17 21:17 256 0 gusting 4 21.7
2014-Apr-17 21:12 256 0 gusting 5 21.7
2014-Apr-17 21:07 256 1 gusting 5 21.7
2014-Apr-17 21:02 257 1 gusting 6 21.7
2014-Apr-17 20:57 249 1 gusting 6 21.7
2014-Apr-17 20:52 248 1 gusting 6 21.7
2014-Apr-17 20:47 239 1 gusting 6 21.7
2014-Apr-17 20:42 270 1 gusting 5 21.7
2014-Apr-17 20:37 263 1 gusting 6 21.7
2014-Apr-17 20:32 269 1 gusting 6 21.7
2014-Apr-17 20:27 273 0 gusting 6 21.7
2014-Apr-17 20:22 273 1 gusting 7 22.2
2014-Apr-17 20:17 273 2 gusting 11 22.2
2014-Apr-17 20:12 263 3 gusting 11 22.2
2014-Apr-17 20:07 247 4 gusting 11 22.2
2014-Apr-17 20:02 238 4 gusting 10 22.8
2014-Apr-17 19:57 259 4 gusting 13 22.8
2014-Apr-17 19:52 257 5 gusting 13 22.8
2014-Apr-17 19:47 231 5 gusting 13 23.3
2014-Apr-17 19:42 242 5 gusting 11 23.3
2014-Apr-17 19:37 245 5 gusting 11 23.3
2014-Apr-17 19:32 232 5 gusting 13 23.3
2014-Apr-17 19:27 269 5 gusting 13 23.3
2014-Apr-17 19:22 247 5 gusting 13 23.9
2014-Apr-17 19:17 281 6 gusting 12 23.9
2014-Apr-17 19:12 256 6 gusting 17 23.9
2014-Apr-17 19:07 240 6 gusting 17 24.4
2014-Apr-17 19:02 281 8 gusting 17 24.4
2014-Apr-17 18:57 257 8 gusting 13 24.4
2014-Apr-17 18:52 275 7 gusting 13 25.0
2014-Apr-17 18:47 300 6 gusting 15 25.0
2014-Apr-17 18:42 236 6 gusting 15 25.0
2014-Apr-17 18:37 247 6 gusting 15 25.6
2014-Apr-17 18:32 223 6 gusting 15 25.6
2014-Apr-17 18:27 250 6 gusting 14 25.6
2014-Apr-17 18:22 276 6 gusting 15 25.6
2014-Apr-17 18:17 267 8 gusting 15 26.1
2014-Apr-17 18:12 259 7 gusting 15 26.1
2014-Apr-17 18:07 259 7 gusting 15 26.7
2014-Apr-17 18:02 258 8 gusting 15 26.7
2014-Apr-17 17:57 258 7 gusting 14 26.7
2014-Apr-17 17:52 211 6 gusting 15 27.2
2014-Apr-17 17:47 250 6 gusting 15 27.2
2014-Apr-17 17:42 225 7 gusting 15 27.8
2014-Apr-17 17:37 257 6 gusting 14 27.8
2014-Apr-17 17:32 256 7 gusting 14 27.8
2014-Apr-17 17:27 282 7 gusting 14 28.3
2014-Apr-17 17:22 265 6 gusting 13 28.3
2014-Apr-17 17:17 252 7 gusting 14 28.3
2014-Apr-17 17:12 251 7 gusting 14 28.9
2014-Apr-17 17:07 242 6 gusting 14 29.4
2014-Apr-17 17:02 279 6 gusting 14 29.4
2014-Apr-17 16:57 252 7 gusting 13 29.4
2014-Apr-17 16:52 218 6 gusting 13 30.0
2014-Apr-17 16:47 240 5 gusting 7 30.6
2014-Apr-17 16:42 198 3 gusting 7 31.1
2014-Apr-17 16:37 218 2 gusting 8 31.1
2014-Apr-17 16:32 212 3 gusting 8 31.1
2014-Apr-17 16:27 225 3 gusting 6 31.1
2014-Apr-17 16:22 211 1 gusting 6 31.1
2014-Apr-17 16:17 208 1 gusting 7 31.1
2014-Apr-17 16:12 221 2 gusting 7 31.1
2014-Apr-17 16:07 230 3 gusting 7 30.6
2014-Apr-17 16:02 242 3 gusting 7 31.1
2014-Apr-17 15:57 233 3 gusting 7 30.6
2014-Apr-17 15:52 213 1 gusting 7 31.1
2014-Apr-17 15:47 221 1 gusting 6 31.1
2014-Apr-17 15:42 207 2 gusting 5 31.1
2014-Apr-17 15:37 200 1 gusting 5 31.1
2014-Apr-17 15:32 207 0 gusting 6 31.1
2014-Apr-17 15:27 187 1 gusting 6 31.1
2014-Apr-17 15:22 223 1 gusting 6 31.1
2014-Apr-17 15:17 279 0 gusting 4 31.1
2014-Apr-17 15:12 297 0 gusting 5 31.1
2014-Apr-17 15:07 189 0 gusting 6 30.6
2014-Apr-17 15:02 177 1 gusting 6 30.6
2014-Apr-17 14:57 173 1 gusting 6 30.6
2014-Apr-17 14:52 155 0 gusting 4 31.1
2014-Apr-17 14:47 151 0 gusting 2 31.1
2014-Apr-17 14:42 332 30.6
2014-Apr-17 14:37 196 30.6
2014-Apr-17 14:32 355 0 gusting 5 30.0
2014-Apr-17 14:27 044 0 gusting 6 30.0
2014-Apr-17 14:22 044 0 gusting 6 30.0
2014-Apr-17 14:17 127 1 gusting 6 30.0
2014-Apr-17 14:12 080 2 gusting 6 30.0
2014-Apr-17 14:07 085 2 gusting 5 30.0
2014-Apr-17 14:02 104 0 gusting 6 30.0
2014-Apr-17 13:57 209 1 gusting 7 29.4
2014-Apr-17 13:52 132 2 gusting 7 29.4
2014-Apr-17 13:47 162 3 gusting 7 29.4
2014-Apr-17 13:42 103 3 gusting 6 29.4
2014-Apr-17 13:37 134 2 gusting 7 29.4
2014-Apr-17 13:32 103 1 gusting 7 29.4
2014-Apr-17 13:27 088 1 gusting 6 28.9
2014-Apr-17 13:22 057 1 gusting 7 28.9
2014-Apr-17 13:17 075 3 gusting 7 28.9
2014-Apr-17 13:12 105 2 gusting 7 28.3
2014-Apr-17 13:07 097 2 gusting 5 28.3
2014-Apr-17 13:02 106 1 gusting 6 28.3
2014-Apr-17 12:57 177 1 gusting 6 28.3
2014-Apr-17 12:52 139 2 gusting 11 27.8
2014-Apr-17 12:47 082 5 gusting 11 27.8
2014-Apr-17 12:42 109 6 gusting 11 27.8
2014-Apr-17 12:37 105 3 gusting 10 27.8
2014-Apr-17 12:32 141 3 gusting 11 27.8
2014-Apr-17 12:27 117 5 gusting 11 27.8
2014-Apr-17 12:22 163 4 gusting 11 27.8
2014-Apr-17 12:17 063 3 gusting 11 27.8
2014-Apr-17 12:12 156 2 gusting 11 27.2
2014-Apr-17 12:07 108 3 gusting 7 27.2
2014-Apr-17 12:02 110 3 gusting 7 27.2
2014-Apr-17 11:57 094 1 gusting 6 27.2
2014-Apr-17 11:52 098 1 gusting 6 26.7
2014-Apr-17 11:47 075 1 gusting 8 26.7
2014-Apr-17 11:42 069 2 gusting 9 26.7
2014-Apr-17 11:37 127 4 gusting 9 26.1
2014-Apr-17 11:32 103 4 gusting 9 26.1
2014-Apr-17 11:27 094 2 gusting 6 26.1
2014-Apr-17 11:22 065 2 gusting 6 26.1
2014-Apr-17 11:17 024 2 gusting 6 25.6
2014-Apr-17 11:12 100 1 gusting 5 25.6
2014-Apr-17 11:07 076 1 gusting 6 25.0
2014-Apr-17 11:02 036 2 gusting 6 25.0
2014-Apr-17 10:57 046 4 gusting 10 25.0
2014-Apr-17 10:52 101 4 gusting 10 25.0
2014-Apr-17 10:47 088 3 gusting 10 24.4
2014-Apr-17 10:42 105 2 gusting 6 24.4
2014-Apr-17 10:37 061 1 gusting 5 24.4
2014-Apr-17 10:32 055 1 gusting 6 23.9
2014-Apr-17 10:27 079 2 gusting 6 23.9
2014-Apr-17 10:22 080 1 gusting 4 23.3
2014-Apr-17 10:17 089 1 gusting 5 23.3
2014-Apr-17 10:12 044 1 gusting 5 23.3
2014-Apr-17 10:07 076 1 gusting 7 22.8
2014-Apr-17 10:02 028 2 gusting 7 22.2
2014-Apr-17 09:57 055 4 gusting 7 22.2
2014-Apr-17 09:52 099 4 gusting 6 22.2
2014-Apr-17 09:47 085 4 gusting 8 21.7
2014-Apr-17 09:42 081 4 gusting 8 21.7
2014-Apr-17 09:37 069 5 gusting 8 21.1
2014-Apr-17 09:32 050 5 gusting 8 21.1
2014-Apr-17 09:27 063 4 gusting 6 21.1
2014-Apr-17 09:22 081 3 gusting 6 20.6
2014-Apr-17 09:17 067 3 gusting 6 20.6
2014-Apr-17 09:12 060 3 gusting 6 20.6
2014-Apr-17 09:07 049 3 gusting 6 20.6
2014-Apr-17 09:02 082 2 gusting 6 20.6
2014-Apr-17 08:57 086 2 gusting 6 20.0
2014-Apr-17 08:52 061 2 gusting 6 20.0
2014-Apr-17 08:47 059 2 gusting 6 19.4
2014-Apr-17 08:42 105 1 gusting 3 19.4
2014-Apr-17 08:37 067 0 gusting 5 19.4
2014-Apr-17 08:32 068 1 gusting 5 18.9
2014-Apr-17 08:27 068 2 gusting 5 18.3
2014-Apr-17 08:22 065 2 gusting 5 18.3
2014-Apr-17 08:17 061 3 gusting 5 18.3
2014-Apr-17 08:12 069 2 gusting 4 17.8
2014-Apr-17 08:07 068 1 gusting 4 17.8
2014-Apr-17 08:02 050 1 gusting 4 17.8
2014-Apr-17 07:57 050 1 gusting 4 17.2
2014-Apr-17 07:52 050 1 gusting 6 17.2
2014-Apr-17 07:47 051 2 gusting 6 16.7
2014-Apr-17 07:42 051 1 gusting 5 16.7
2014-Apr-17 07:37 017 0 gusting 6 16.7
2014-Apr-17 07:32 017 1 gusting 6 16.1
2014-Apr-17 07:27 018 1 gusting 4 15.6
2014-Apr-17 07:22 309 1 gusting 4 15.6
2014-Apr-17 07:17 302 2 gusting 4 15.6
2014-Apr-17 07:12 304 2 gusting 4 15.0
2014-Apr-17 07:07 298 1 gusting 3 15.0
2014-Apr-17 07:02 311 1 gusting 3 15.0
2014-Apr-17 06:57 311 1 gusting 3 15.0
2014-Apr-17 06:52 283 1 gusting 3 14.4
2014-Apr-17 06:47 283 1 gusting 2 14.4
2014-Apr-17 06:42 283 0 gusting 2 14.4
2014-Apr-17 06:37 283 0 gusting 2 14.4
2014-Apr-17 06:32 283 14.4
2014-Apr-17 06:27 283 0 gusting 2 14.4
2014-Apr-17 06:22 283 0 gusting 2 14.4
2014-Apr-17 06:17 283 0 gusting 2 14.4
2014-Apr-17 06:12 283 0 gusting 3 14.4
2014-Apr-17 06:07 283 0 gusting 3 14.4
2014-Apr-17 06:02 283 0 gusting 3 14.4
2014-Apr-17 05:57 283 0 gusting 3 14.4
2014-Apr-17 05:47 283 1 gusting 2 14.4
2014-Apr-17 05:42 283 1 gusting 2 14.4
2014-Apr-17 05:37 283 1 gusting 2 14.4
2014-Apr-17 05:32 283 0 gusting 1 14.4
2014-Apr-17 05:27 283 14.4
2014-Apr-17 05:22 283 14.4
2014-Apr-17 05:17 289 14.4
2014-Apr-17 05:12 288 14.4
2014-Apr-17 05:07 288 0 gusting 3 14.4
2014-Apr-17 05:02 288 1 gusting 3 13.9
2014-Apr-17 04:57 289 2 gusting 3 13.9
2014-Apr-17 04:52 288 1 gusting 3 13.9
2014-Apr-17 04:47 288 0 gusting 3 13.9
2014-Apr-17 04:42 288 1 gusting 4 13.9
2014-Apr-17 04:37 289 2 gusting 4 13.9
2014-Apr-17 04:32 288 2 gusting 4 13.9
2014-Apr-17 04:27 288 2 gusting 3 13.9
2014-Apr-17 04:22 286 1 gusting 3 13.9
2014-Apr-17 04:17 286 1 gusting 3 13.9
2014-Apr-17 04:12 286 1 gusting 3 13.9
2014-Apr-17 04:07 133 0 gusting 3 14.4
2014-Apr-17 04:02 133 0 gusting 3 15.0
2014-Apr-17 03:57 133 15.0
2014-Apr-17 03:52 133 15.6
2014-Apr-17 03:47 133 15.6
2014-Apr-17 03:42 133 15.6
2014-Apr-17 03:37 133 15.6
2014-Apr-17 03:32 133 15.6
2014-Apr-17 03:27 133 15.6
2014-Apr-17 03:22 132 15.6
2014-Apr-17 03:17 133 15.6
2014-Apr-17 03:12 133 16.1
2014-Apr-17 03:07 133 16.1
2014-Apr-17 02:57 133 16.7
2014-Apr-17 02:52 133 16.7
2014-Apr-17 02:47 133 16.7
2014-Apr-17 02:42 133 16.7
2014-Apr-17 02:37 133 16.7
2014-Apr-17 02:32 133 16.7
2014-Apr-17 02:27 350 16.7
2014-Apr-17 02:22 350 16.7
2014-Apr-17 02:17 350 16.7
2014-Apr-17 02:12 350 16.7
2014-Apr-17 02:07 350 16.7
2014-Apr-17 02:02 350 16.7
2014-Apr-17 01:57 350 17.2
2014-Apr-17 01:52 350 17.2
2014-Apr-17 01:47 350 17.2
2014-Apr-17 01:42 350 17.2
2014-Apr-17 01:37 350 17.2
2014-Apr-17 01:32 355 16.7
2014-Apr-17 01:27 355 16.7
2014-Apr-17 01:22 355 16.7
2014-Apr-17 01:17 355 16.7
2014-Apr-17 01:12 355 16.7
2014-Apr-17 01:07 355 16.7
2014-Apr-17 01:02 355 16.7
2014-Apr-17 00:57 355 16.7
2014-Apr-17 00:52 355 17.2
2014-Apr-17 00:47 355 17.2
2014-Apr-17 00:42 355 17.2
2014-Apr-17 00:37 355 17.2
2014-Apr-17 00:32 355 17.2
2014-Apr-17 00:27 355 17.2
2014-Apr-17 00:22 355 17.2
2014-Apr-17 00:17 355 17.2
2014-Apr-17 00:12 355 17.2
2014-Apr-17 00:07 355 17.8
2014-Apr-17 00:02 355 17.8
2014-Apr-16 23:57 355 17.8
2014-Apr-16 23:52 355 0 gusting 3 17.8
2014-Apr-16 23:47 355 1 gusting 3 18.3
2014-Apr-16 23:42 355 0 18.3
2014-Apr-16 23:37 271 18.9
2014-Apr-16 23:32 271 18.9
2014-Apr-16 23:27 271 0 gusting 2 18.9
2014-Apr-16 23:22 271 0 gusting 2 18.9
2014-Apr-16 23:17 271 19.4
2014-Apr-16 23:12 271 19.4
2014-Apr-16 23:07 271 19.4
2014-Apr-16 23:02 271 19.4
2014-Apr-16 22:57 271 19.4
2014-Apr-16 22:52 271 0 gusting 3 19.4
2014-Apr-16 22:47 271 0 gusting 3 20.0
2014-Apr-16 22:42 271 0 gusting 3 20.0
2014-Apr-16 22:37 271 0 gusting 2 20.0
2014-Apr-16 22:32 271 0 gusting 4 20.6
2014-Apr-16 22:27 271 20.6
2014-Apr-16 22:22 271 0 gusting 4 20.6
2014-Apr-16 22:17 251 20.6
2014-Apr-16 22:12 251 1 gusting 7 20.6
2014-Apr-16 22:07 251 3 gusting 8 20.6
2014-Apr-16 22:02 261 4 gusting 9 20.6
2014-Apr-16 21:57 257 5 gusting 9 20.6
2014-Apr-16 21:52 265 5 gusting 9 20.6
2014-Apr-16 21:47 272 5 gusting 9 20.6
2014-Apr-16 21:42 268 5 gusting 9 20.6
2014-Apr-16 21:37 259 6 gusting 10 20.6
2014-Apr-16 21:32 259 6 gusting 10 20.6
2014-Apr-16 21:27 265 6 gusting 10 20.6
2014-Apr-16 21:22 263 6 gusting 10 20.6
2014-Apr-16 21:17 288 6 gusting 10 20.6
2014-Apr-16 21:12 256 6 gusting 11 20.6
2014-Apr-16 21:07 249 6 gusting 11 21.1
2014-Apr-16 21:02 253 6 gusting 11 21.1
2014-Apr-16 20:57 256 6 gusting 10 21.1
2014-Apr-16 20:52 285 6 gusting 10 21.1
2014-Apr-16 20:47 260 6 gusting 10 21.1
2014-Apr-16 20:42 260 6 gusting 10 21.7
2014-Apr-16 20:37 261 6 gusting 10 21.7
2014-Apr-16 20:32 263 6 gusting 9 21.7
2014-Apr-16 20:27 259 5 gusting 9 21.7
2014-Apr-16 20:22 217 4 gusting 9 21.7
2014-Apr-16 20:17 245 3 gusting 6 21.7
2014-Apr-16 20:12 248 2 gusting 6 21.7
2014-Apr-16 20:07 254 2 gusting 6 22.2
2014-Apr-16 20:02 257 2 gusting 6 22.2
2014-Apr-16 19:57 253 2 gusting 6 22.2
2014-Apr-16 19:52 252 3 gusting 7 22.2
2014-Apr-16 19:47 260 3 gusting 7 22.8
2014-Apr-16 19:42 236 3 gusting 7 22.8
2014-Apr-16 19:37 250 4 gusting 7 22.8
2014-Apr-16 19:32 249 4 gusting 7 22.8
2014-Apr-16 19:27 235 5 gusting 8 23.3
2014-Apr-16 19:22 237 5 gusting 8 23.3
2014-Apr-16 19:17 219 4 gusting 7 23.9
2014-Apr-16 19:12 227 1 gusting 2 24.4
2014-Apr-16 19:07 236 25.0
2014-Apr-16 19:02 236 25.0
2014-Apr-16 18:57 236 25.6
2014-Apr-16 18:52 236 25.6
2014-Apr-16 18:47 236 26.1
2014-Apr-16 18:42 236 0 gusting 2 26.1
2014-Apr-16 18:37 236 0 gusting 2 26.7
2014-Apr-16 18:32 236 0 gusting 1 26.7
2014-Apr-16 18:27 236 26.7
2014-Apr-16 18:22 236 26.7
2014-Apr-16 18:17 236 26.7
2014-Apr-16 18:12 236 26.7
2014-Apr-16 18:07 236 26.7
2014-Apr-16 18:02 236 0 gusting 3 26.7
2014-Apr-16 17:57 236 0 gusting 3 27.2
2014-Apr-16 17:52 236 0 gusting 2 27.2
2014-Apr-16 17:47 236 27.2
2014-Apr-16 17:42 236 27.2
2014-Apr-16 17:37 236 0 gusting 4 27.2
2014-Apr-16 17:32 236 0 gusting 6 26.7
2014-Apr-16 17:27 239 1 gusting 6 26.7
2014-Apr-16 17:22 239 2 gusting 5 26.7
2014-Apr-16 17:17 236 1 gusting 6 26.7
2014-Apr-16 17:12 248 2 gusting 6 26.7
2014-Apr-16 17:07 292 1 gusting 5 26.7
2014-Apr-16 17:02 254 0 gusting 5 26.7
2014-Apr-16 16:57 294 1 gusting 5 26.7
2014-Apr-16 16:52 232 1 gusting 6 26.7
2014-Apr-16 16:47 228 1 gusting 6 26.7
2014-Apr-16 16:42 323 2 gusting 8 26.7
2014-Apr-16 16:37 271 4 gusting 8 26.7
2014-Apr-16 16:32 266 3 gusting 8 26.7
2014-Apr-16 16:27 261 2 gusting 6 26.7
2014-Apr-16 16:22 240 1 gusting 5 26.7
2014-Apr-16 16:17 290 1 gusting 5 26.7
2014-Apr-16 16:12 271 1 gusting 5 26.7
2014-Apr-16 16:07 288 1 gusting 5 26.1
2014-Apr-16 16:02 286 1 gusting 6 26.1
2014-Apr-16 15:57 283 2 gusting 6 26.1
2014-Apr-16 15:52 270 1 gusting 5 26.1
2014-Apr-16 15:47 248 1 gusting 6 26.7
2014-Apr-16 15:42 252 2 gusting 6 26.1
2014-Apr-16 15:37 262 2 gusting 6 26.1
2014-Apr-16 15:32 292 2 gusting 6 26.1
2014-Apr-16 15:27 286 1 gusting 5 26.7
2014-Apr-16 15:22 338 0 gusting 5 26.1
2014-Apr-16 15:17 315 2 gusting 5 26.1
2014-Apr-16 15:12 246 2 gusting 5 26.1
2014-Apr-16 15:07 250 1 gusting 5 26.1
2014-Apr-16 15:02 269 0 gusting 4 25.6
2014-Apr-16 14:57 116 0 gusting 4 25.6
2014-Apr-16 14:52 281 0 gusting 6 25.6
2014-Apr-16 14:47 273 2 gusting 6 25.6
2014-Apr-16 14:42 273 2 gusting 6 25.6
2014-Apr-16 14:37 238 0 gusting 3 26.1
2014-Apr-16 14:32 214 26.1
2014-Apr-16 14:27 005 0 gusting 6 25.6
2014-Apr-16 14:22 011 1 gusting 6 25.6
2014-Apr-16 14:17 282 1 gusting 5 25.0
2014-Apr-16 14:07 264 0 gusting 4 25.0
2014-Apr-16 14:02 263 0 gusting 5 24.4
2014-Apr-16 13:57 192 1 gusting 6 24.4
2014-Apr-16 13:52 145 2 gusting 6 24.4
2014-Apr-16 13:47 133 1 gusting 6 24.4
2014-Apr-16 13:42 253 1 gusting 5 24.4
2014-Apr-16 13:37 194 0 gusting 5 24.4
2014-Apr-16 13:32 113 0 gusting 5 24.4
2014-Apr-16 13:27 146 1 gusting 5 24.4
2014-Apr-16 13:22 148 1 gusting 5 24.4
2014-Apr-16 13:17 280 0 gusting 4 23.9
2014-Apr-16 13:12 312 1 gusting 6 23.9
2014-Apr-16 13:07 311 2 gusting 6 23.9
2014-Apr-16 13:02 296 0 gusting 5 23.9
2014-Apr-16 12:57 337 0 gusting 3 23.9
2014-Apr-16 12:52 355 0 gusting 3 23.9
2014-Apr-16 12:47 348 0 gusting 3 23.9
2014-Apr-16 12:42 329 0 gusting 3 23.3
2014-Apr-16 12:37 269 0 gusting 3 23.3
2014-Apr-16 12:32 269 0 gusting 5 23.3
2014-Apr-16 12:27 273 1 gusting 5 23.3
2014-Apr-16 12:22 197 1 gusting 6 22.8
2014-Apr-16 12:17 276 1 gusting 6 22.8
2014-Apr-16 12:12 234 1 gusting 6 22.8
2014-Apr-16 12:07 175 0 gusting 4 22.8
2014-Apr-16 12:02 246 0 gusting 3 22.2
2014-Apr-16 11:57 329 0 gusting 3 22.2
2014-Apr-16 11:52 341 1 gusting 4 21.7
2014-Apr-16 11:47 270 0 gusting 5 21.7
2014-Apr-16 11:42 279 1 gusting 5 21.1
2014-Apr-16 11:37 279 1 gusting 5 21.1
2014-Apr-16 11:32 355 0 gusting 5 21.1
2014-Apr-16 11:27 333 1 gusting 5 20.6
2014-Apr-16 11:22 303 1 gusting 6 20.6
2014-Apr-16 11:17 317 1 gusting 6 20.6
2014-Apr-16 11:07 005 1 gusting 6 20.0
2014-Apr-16 11:02 010 1 gusting 6 20.0
2014-Apr-16 10:57 031 0 gusting 3 19.4
2014-Apr-16 10:52 105 19.4
2014-Apr-16 10:47 105 18.9
2014-Apr-16 10:42 105 0 gusting 4 18.3
2014-Apr-16 10:37 105 0 gusting 4 17.8
2014-Apr-16 10:32 105 0 gusting 4 17.8
2014-Apr-16 10:27 106 0 gusting 3 17.2
2014-Apr-16 10:22 105 0 gusting 3 16.7
2014-Apr-16 10:17 106 0 gusting 4 16.7